[[{"header":{"parameterUnit":"m.s-1","parameterCategory":1,"la1":30.2992,"la2":30.254,"lo1":-89.0895,"lo2":-89.0443,"dy":0.0025,"dx":0.0025,"nx":19,"ny":19,"refTime":"2026-04-25T21:00:00:Z","depth":0,"parameterNumber":2,"parameterNumberName":"U-component_of_WINDS"},"data":[0,0,0,3.2874,3.2878,3.3045,3.3046,3.3247,3.3248,0,0,0,0,0,0,0,0,0,0,0,3.2816,3.2817,3.2874,3.2878,3.3045,3.3046,3.3246,3.3248,0,0,0,0,0,0,0,0,0,0,0,3.2815,3.2816,3.2818,3.2879,3.3045,3.3046,3.3246,3.3125,0,0,0,0,0,0,0,0,0,0,3.2965,3.2901,3.2816,3.2818,3.288,3.3045,3.3046,3.3119,3.3132,3.3165,0,3.319,0,3.3223,3.3261,3.3262,0,0,0,3.2885,3.289,3.2943,3.2818,3.2881,3.3044,3.2972,3.3127,3.3142,3.3182,3.3193,3.3201,3.3226,3.3262,3.3263,3.3426,3.3427,0,0,3.2876,3.2841,3.2933,3.2952,3.2924,3.2966,3.2977,3.3136,3.3146,3.3194,3.3206,3.3229,3.3263,3.3265,3.3426,3.3426,0,0,0,3.2845,3.2834,3.2884,3.2944,3.2975,3.2971,3.2983,3.3139,3.3158,3.3209,3.3232,3.3264,3.3267,3.3425,3.3426,3.3413,0,0,0,3.2839,3.2816,3.2879,3.286,3.2972,3.3059,3.2982,3.3147,3.3166,3.3231,3.3265,3.3269,3.3425,3.3426,3.3412,3.3412,0,0,0,3.2808,3.2812,3.2833,3.2857,3.2928,3.3057,3.3086,3.3152,3.318,3.3262,3.3269,3.3425,3.3426,3.3412,3.3411,3.3445,0,0,0,3.2764,3.2818,3.2832,3.2902,3.2926,3.3047,3.3085,3.3177,3.3246,3.3265,3.3425,3.3426,3.3411,3.3411,3.3444,3.3466,3.3472,0,0,3.2813,3.2823,3.2867,3.2885,3.2994,3.3025,3.3133,3.3229,3.327,3.3372,3.3377,3.3412,3.3411,3.3445,3.3519,3.3524,0,0,0,3.2871,3.2902,3.2939,3.3003,3.3077,3.3142,3.3226,3.3262,3.3351,3.3315,3.3435,3.3435,3.3457,3.3469,3.3473,3.3493,3.343,3.343,3.343,3.2889,3.2938,3.3015,3.3085,3.3146,3.3233,3.3288,3.3352,3.3383,3.3411,3.3441,3.348,3.3493,3.3496,3.3517,3.3457,3.3457,3.3457,3.3457,3.2965,3.3017,3.3059,3.3148,3.3201,3.3277,3.3364,3.3384,3.3463,3.3461,3.3482,3.3474,3.35,3.3521,3.3457,3.3457,3.3457,3.3457,3.3457,3.2981,3.3015,3.3059,3.3157,3.3228,3.3298,3.3373,3.3418,3.3461,3.3482,3.352,3.352,3.3526,3.3497,3.3497,3.3497,3.3498,3.3498,3.3498,3.2981,3.3031,3.3088,3.3174,3.3222,3.3291,3.338,3.3429,3.3495,3.3522,3.3523,3.3552,3.3493,3.3477,3.35,3.35,3.3499,3.3499,3.3499,3.3038,3.3033,3.3121,3.3169,3.3275,3.3343,3.3401,3.3497,3.3545,3.358,3.3606,3.3555,3.3569,3.3566,3.3553,3.3595,3.3595,3.3595,3.3595,3.3052,3.3064,3.3165,3.3239,3.3317,3.3379,3.3479,3.355,3.3623,3.3656,3.3657,3.3644,3.3639,3.3655,3.3651,3.3639,3.3702,3.3702,3.3702,3.309,3.3112,3.3187,3.3258,3.3345,3.342,3.3515,3.36,3.3682,3.3708,3.3682,3.3678,3.3658,3.3648,3.3672,3.3663,3.3644,0,0]},{"header":{"parameterUnit":"m.s-1","parameterCategory":1,"la1":30.2992,"la2":30.254,"lo1":-89.0895,"lo2":-89.0443,"dy":0.0025,"dx":0.0025,"nx":19,"ny":19,"refTime":"2026-04-25T21:00:00:Z","depth":0,"parameterNumber":3,"parameterNumberName":"V-component_of_WINDS"},"data":[0,0,0,2.3543,2.3542,2.349,2.3489,2.342,2.3419,0,0,0,0,0,0,0,0,0,0,0,2.356,2.356,2.3543,2.3542,2.349,2.3489,2.342,2.3419,0,0,0,0,0,0,0,0,0,0,0,2.356,2.356,2.356,2.3542,2.349,2.3489,2.342,2.346,0,0,0,0,0,0,0,0,0,0,2.351,2.3529,2.356,2.3559,2.3541,2.349,2.3489,2.3462,2.3457,2.3443,0,2.3435,0,2.3426,2.3415,2.3414,0,0,0,2.3539,2.3533,2.3517,2.3559,2.3541,2.349,2.3512,2.3459,2.3454,2.3438,2.3434,2.3431,2.3425,2.3414,2.3414,2.3349,2.3349,0,0,2.3542,2.3551,2.3521,2.3514,2.3526,2.3514,2.3511,2.3456,2.3451,2.3434,2.343,2.3424,2.3414,2.3413,2.335,2.3349,0,0,0,2.3552,2.3553,2.3539,2.3517,2.3508,2.3513,2.3509,2.3454,2.3448,2.3429,2.3423,2.3413,2.3413,2.335,2.3349,2.3349,0,0,0,2.3554,2.3559,2.354,2.3545,2.3509,2.3481,2.3508,2.3452,2.3446,2.3423,2.3413,2.3412,2.335,2.335,2.335,2.3347,0,0,0,2.3563,2.356,2.3553,2.3546,2.3524,2.3482,2.3473,2.3451,2.3442,2.3414,2.3412,2.335,2.335,2.335,2.3348,2.3332,0,0,0,2.3574,2.3553,2.3554,2.3527,2.3525,2.3483,2.3474,2.3442,2.3418,2.3413,2.335,2.335,2.335,2.3348,2.3333,2.3321,2.3317,0,0,2.3552,2.3551,2.3534,2.3533,2.3494,2.349,2.345,2.3418,2.3406,2.3368,2.3366,2.3349,2.3348,2.3332,2.3293,2.329,0,0,0,2.353,2.3518,2.3506,2.3485,2.3462,2.3441,2.3415,2.3403,2.3371,2.339,2.334,2.3338,2.3329,2.3322,2.332,2.331,2.3347,2.3347,2.3347,2.351,2.3498,2.3469,2.345,2.3429,2.3403,2.3383,2.3362,2.3354,2.3342,2.3331,2.3309,2.3302,2.33,2.329,2.3324,2.3324,2.3324,2.3324,2.3475,2.3456,2.3447,2.3416,2.3402,2.3374,2.3347,2.3342,2.3312,2.3317,2.3308,2.3314,2.3297,2.3288,2.3324,2.3324,2.3324,2.3324,2.3324,2.3461,2.3449,2.3437,2.3404,2.338,2.336,2.3332,2.3319,2.3307,2.3298,2.3283,2.3283,2.3281,2.3292,2.3292,2.3292,2.3292,2.3292,2.3292,2.345,2.3436,2.3416,2.339,2.3374,2.3351,2.3323,2.3306,2.3283,2.3275,2.3275,2.3267,2.3299,2.3307,2.329,2.3291,2.3291,2.3291,2.3291,2.3419,2.3424,2.3394,2.3378,2.3345,2.332,2.3304,2.327,2.3254,2.324,2.3234,2.326,2.3256,2.3258,2.3264,2.3238,2.3238,2.3238,2.3238,2.3407,2.3404,2.3369,2.3345,2.3319,2.3302,2.3263,2.324,2.3216,2.3205,2.3206,2.3214,2.3216,2.3211,2.3214,2.322,2.3183,2.3182,2.3182,2.3386,2.3381,2.3353,2.3333,2.3305,2.3281,2.3244,2.3213,2.3187,2.318,2.3195,2.3197,2.3209,2.3214,2.3207,2.3212,2.3222,0,0]}]]